Regional Weather Roundup
Issued by NWS

Home | Current Version | Previous Version | Graphics & Text | Print | Product List | Glossary On
Versions: 1 2 3 4 5 6 7 8 9 10 11 12 13 14 15 16 17 18 19 20 21 22 23 24 25 26 27 28 29 30 31 32 33 34 35 36 37 38 39 40 41 42 43 44 45 46 47 48 49 50
865
ASUS45 KABQ 160610
RWRNM
NEW MEXICO REGIONAL WEATHER ROUNDUP
NATIONAL WEATHER SERVICE ALBUQUERQUE NM
1100 PM MST MON JAN 15 2018

NOTE: "FAIR" MEANS FEW OR NO CLOUDS BELOW 12,000 FEET AGL WITH NO
       SIGNIFICANT WEATHER OR OBSTRUCTIONS TO VISION.

      THIS PRODUCT IS RELEASED AS TWO VERSIONS.  ONE VERSION NEAR
      THE TOP OF THE HOUR CONTAINING PRELIMINARY DATA FROM ALBUQUERQUE
      AND OTHER STATIONS.  A FINAL VERSION WITH ADDITIONAL DATA IS
      ISSUED ABOUT 10 MINUTES AFTER THE HOUR.

NMZ501-503-504-510>518-160700-
NORTHWEST PLATEAU/NORTHCENTRAL MOUNTAINS

CITY           SKY/WX    TMP DP  RH WIND       PRES   REMARKS
FARMINGTON     FAIR      28  20  71 N5        30.24R WCI  23
6HR MIN TEMP:  26; 6HR MAX TEMP:  46;

LOS ALAMOS     CLOUDY    21  18  87 S18       30.37R WCI   6
SANTA FE       CLOUDY    22  16  78 SE20      30.40R WCI   7
6HR MIN TEMP:  22; 6HR MAX TEMP:  32;

TAOS           MOCLDY    22  18  85 NW3       30.38R
ANGEL FIRE     CLOUDY    14   9  79 S12       30.34S WCI   1

$$
NMZ402-403-502-505>509-160700-
WESTCENTRAL MOUNTAINS/SOUTHWEST MOUNTAINS

CITY           SKY/WX    TMP DP  RH WIND       PRES   REMARKS
GALLUP         FAIR      25  19  78 CALM      30.27R
6HR MIN TEMP:  21; 6HR MAX TEMP:  51;

GRANTS         FAIR      30  19  64 S16G25    30.34R WCI  19
SILVER CITY    FAIR      35  18  48 S7        30.28R WCI  29

$$
NMZ407-409-411-412-160700-
SOUTHERN DESERTS

CITY           SKY/WX    TMP DP  RH WIND       PRES   REMARKS
DEMING         FAIR      39  22  50 E16G24    30.30R WCI  30
6HR MIN TEMP:  38; 6HR MAX TEMP:  64;

LAS CRUCES     FAIR      38  23  54 SE20G30   30.31R WCI  28
HOLLOMAN AFB   FAIR      36  23  59 SW10      30.39R WCI  29
ALAMOGORDO     FAIR      37  23  56 N6        30.38R WCI  33
T OR C         FAIR      34  22  61 NE15      30.32R WCI  24
6HR MIN TEMP:  34; 6HR MAX TEMP:  59;


$$
NMZ519>523-160700-
CENTRAL VALLEYS/CENTRAL HIGHLANDS

CITY           SKY/WX    TMP DP  RH WIND       PRES   REMARKS
ALBUQUERQUE    FAIR      27  18  69 E30G41    30.37R WCI  11
6HR MIN TEMP:  27; 6HR MAX TEMP:  39;

MORIARTY ARPT  CLOUDY    23  18  80 SE14      30.47S WCI  10
6HR MIN TEMP:  23; 6HR MAX TEMP:  32;

CLINES CORNERS CLOUDY    15  13  91 E16       30.42S FOG     WCI  -1
6HR MIN TEMP:  15; 6HR MAX TEMP:  23;

BELEN          FAIR      28  20  71 NW9       30.38R WCI  20
6HR MIN TEMP:  28; 6HR MAX TEMP:  42;

SOCORRO        FAIR      30  20  67 E5        30.39R WCI  25
6HR MIN TEMP:  28; 6HR MAX TEMP:  46;


$$
NMZ524>526-539-540-160700-
SOUTHCENTRAL MOUNTAINS

CITY           SKY/WX    TMP DP  RH WIND       PRES   REMARKS
RUIDOSO        NOT AVBL

$$
NMZ527>531-160700-
NORTHEAST HIGHLANDS/NORTHEAST PLAINS

CITY           SKY/WX    TMP DP  RH WIND       PRES   REMARKS
LAS VEGAS      CLOUDY    16  14  92 E7        30.44S WCI   6
6HR MIN TEMP:  16; 6HR MAX TEMP:  22;

RATON          CLOUDY    15  12  88 S7        30.44S WCI   5
6HR MIN TEMP:  15; 6HR MAX TEMP:  20; 6HR PCP: TRACE;

CLAYTON        CLOUDY    16   5  62 E8        30.53S WCI   5
6HR MIN TEMP:  16; 6HR MAX TEMP:  20; 6HR PCP: TRACE;


$$
NMZ532>537-160700-
EASTCENTRAL PLAINS

CITY           SKY/WX    TMP DP  RH WIND       PRES   REMARKS
SANTA ROSA     CLOUDY    22  13  67 NE6       30.55S WCI  15
TUCUMCARI      CLOUDY    24  12  60 N6        30.57S WCI  17
6HR MIN TEMP:  23; 6HR MAX TEMP:  28;

CANNON AFB     CLOUDY    22   5  49 NE10      30.58S WCI  11
6HR MIN TEMP:  22; 6HR MAX TEMP:  25;

CLOVIS AIRPORT NOT AVBL

$$
NMZ028-029-538-160700-
SOUTHEAST PLAINS

CITY           SKY/WX    TMP DP  RH WIND       PRES   REMARKS
ROSWELL        CLOUDY    30  11  45 NE13      30.60R WCI  20
6HR MIN TEMP:  30; 6HR MAX TEMP:  35;

ARTESIA        CLOUDY    30   9  40 NE9       30.61R WCI  22
CARLSBAD       CLOUDY    31  10  41 NE12      30.59R WCI  22
6HR MIN TEMP:  31; 6HR MAX TEMP:  39; 6HR PCP: TRACE;

HOBBS          CLOUDY    23   3  42 NE15      30.58R WCI  10


$$




USA.gov is the U.S. government's official web portal to all federal, state and local government web resources and services.